Flag for Kazakhstan Weather past 2 weeks in Astana, Kazakhstan

Now
45 °F

Passing clouds.


Feels Like: 45 °F
Forecast: 37 / 61 °F
Wind: 1 mph from North

Location: Astana

Current Time: Sep 22, 2014 at 1:03:12 AM

Latest Report: Sep 22, 2014 at 12:30 AM


Visibility: 6 mi

Pressure: 30.21 "Hg

Humidity: 93%

Dew point: 43 °F

Location of AstanaLocation

Historic Weather in Astana — Graph

°F

Astana temperature yesterday

Maximum temperature yesterday: 63 °F (at 2:30 PM)
Minimum temperature yesterday: 34 °F (at 2:30 AM)
Average temperature yesterday: 47 °F

Past Weeks' High & Low Weather Summary

 TemperatureHumidityPressure
High77 °F (Sep 17, 2:30 PM)100% (Sep 18, 7:00 AM)30.39 "Hg (Sep 18, 7:00 AM)
Low27 °F (Sep 12, 7:00 AM)14% (Sep 17, 2:30 PM)29.50 "Hg (Sep 17, 5:30 PM)
Average50 °F61%30.02 "Hg
* Reported Sep 6 11:00 PM — Sep 21 11:30 PM, Astana, Weather by CustomWeather, © 2014

Note: Actual official high and low records may vary slightly from our data, if they occured in-between our weather recording intervals... More about our weather records

Advertising

Astana weather history for previous 24 hours

 ConditionsComfort  
Time TempWeatherWind HumidityBarometerVisibility
11:30 PM
Sep 21
46 °FPassing clouds.3 mph87%30.21 "Hg6 mi
11:00 PM45 °FPassing clouds.3 mph81%30.21 "Hg6 mi
10:30 PM43 °FPassing clouds.1 mph87%30.21 "Hg5 mi
10:00 PM48 °FClear.1 mph66%30.21 "Hg10 mi
9:30 PM48 °FClear.1 mph71%30.21 "Hg10 mi
9:00 PM52 °FPassing clouds.1 mph62%30.21 "Hg5 mi
8:30 PM54 °FPassing clouds.1 mph58%30.21 "Hg5 mi
8:00 PM55 °FPassing clouds.1 mph55%30.21 "Hg6 mi
7:30 PM55 °FClear.3 mph55%30.18 "Hg10 mi
7:00 PM55 °FSunny.1 mph55%30.18 "Hg10 mi
6:30 PM57 °FSunny.6 mph51%30.18 "Hg10 mi
6:00 PM59 °FSunny.6 mph48%30.18 "Hg10 mi
5:30 PM59 °FPassing clouds.8 mph45%30.18 "HgN/A
5:00 PM59 °FSunny.10 mph45%30.18 "Hg10 mi
4:30 PM59 °FPartly sunny.10 mph45%30.18 "HgN/A
4:00 PM61 °FPartly sunny.10 mph42%30.18 "HgN/A
3:30 PM61 °FPartly sunny.10 mph42%30.18 "HgN/A
3:00 PM59 °FPartly sunny.13 mph42%30.18 "HgN/A
2:30 PM63 °FPartly sunny.8 mph32%30.18 "HgN/A
2:00 PM61 °FPassing clouds.8 mph34%30.18 "HgN/A
1:30 PM61 °FPassing clouds.3 mph34%30.18 "HgN/A
1:00 PM59 °FPassing clouds.8 mph36%30.18 "HgN/A
12:30 PM59 °FPassing clouds.8 mph36%30.21 "HgN/A
12:00 PM57 °FPassing clouds.8 mph39%30.21 "HgN/A
11:30 AM55 °FPassing clouds.6 mph44%30.21 "HgN/A
11:00 AM54 °FSunny.6 mph47%30.21 "Hg10 mi
10:30 AM50 °FPassing clouds.6 mph54%30.21 "HgN/A
10:00 AM48 °FPassing clouds.6 mph58%30.21 "HgN/A
9:30 AM46 °FSunny.6 mph62%30.21 "Hg10 mi
9:00 AM41 °FSunny.6 mph76%30.21 "Hg10 mi
8:30 AM37 °FSunny.3 mph87%30.21 "Hg10 mi
8:00 AM36 °FSunny.6 mph87%30.21 "Hg10 mi
7:30 AM36 °FSunny.1 mph81%30.21 "Hg10 mi
7:00 AM34 °FSunny.No wind87%30.18 "Hg10 mi
6:30 AM34 °FClear.1 mph87%30.18 "Hg10 mi
6:00 AM34 °FClear.1 mph81%30.18 "Hg10 mi
5:30 AM34 °FClear.No wind87%30.18 "Hg10 mi
5:00 AM36 °FClear.3 mph75%30.18 "Hg10 mi
4:30 AM34 °FClear.8 mph87%30.18 "Hg10 mi
4:00 AM34 °FClear.6 mph81%30.18 "Hg10 mi
3:30 AM34 °FClear.6 mph81%30.18 "Hg10 mi
3:00 AM34 °FClear.6 mph81%30.18 "Hg10 mi
2:30 AM34 °FClear.6 mph81%30.18 "Hg10 mi
2:00 AM37 °FClear.6 mph70%30.18 "Hg10 mi
1:30 AM36 °FClear.8 mph75%30.21 "Hg10 mi
1:00 AM37 °FClear.8 mph70%30.21 "Hg10 mi
Weather by CustomWeather, © 2014

See weather overviewHow to use our weather pages